Cloud_Cover
5 5 5 7 1 0 0 0 0 0 0 0 0 0 5 4 5 5 5 5 5 5 52 100 82 36 5 5 5 5 4 2 5 5 5 5 5 5 5 2 0 5 0
5 7 5 0 0 0 0 0 0 0 0 0 1 5 5 5 5 5 5 2 5 5 5 19 23 26 5 5 3 3 5 9 59 5 79 5 5 5 76 62 4 0 4
5 2 0 1 0 0 0 0 0 0 5 5 5 5 5 5 5 6 5 4 5 5 5 6 10 5 4 5 5 5 5 66 96 99 9 91 10 56 68 71 98 63 7
4 0 1 5 0 0 0 0 0 0 5 5 5 5 11 33 34 19 5 5 5 5 5 5 5 5 5 5 5 23 80 94 99 99 94 40 87 5 100 99 97 100 97
0 0 5 5 0 0 0 1 0 5 5 5 19 6 54 64 20 49 5 5 5 5 5 5 5 5 5 6 63 97 96 100 100 100 95 94 19 52 100 91 98 99 88
0 0 5 5 0 0 5 5 5 5 5 5 73 71 68 100 16 11 5 5 5 5 5 5 5 5 5 4 56 95 96 100 100 100 100 100 47 80 97 100 100 100 95
0 0 5 5 0 5 5 5 5 6 40 69 74 96 66 98 23 5 32 5 5 5 5 48 6 5 5 6 72 45 82 99 100 100 100 98 100 96 100 83 100 100 100
0 0 5 5 5 5 5 5 5 35 98 100 96 94 100 86 5 5 5 74 39 5 5 63 94 53 10 29 97 99 98 96 99 100 100 100 100 100 100 100 97 100 100
0 1 5 5 3 5 5 15 49 91 100 100 100 100 100 78 5 5 22 67 56 28 5 79 100 91 41 30 100 100 98 79 98 55 95 100 100 100 100 84 100 100 100
0 5 5 5 5 41 68 84 100 97 100 100 100 100 100 26 5 5 40 22 56 52 60 82 100 98 75 99 97 100 100 94 91 50 78 74 99 97 100 100 100 100 100
0 5 5 4 5 63 85 93 79 96 100 100 100 100 80 5 5 14 81 52 92 100 100 99 100 94 100 98 80 99 100 100 67 89 99 98 90 100 94 98 100 100 100
5 5 5 5 81 100 88 67 100 100 100 100 100 96 9 5 5 6 54 99 98 100 100 100 100 100 100 100 76 100 100 97 100 96 100 100 92 99 100 96 100 100 100
5 5 5 40 100 100 79 59 84 100 100 100 100 69 5 5 10 53 77 81 97 98 100 100 100 100 100 100 100 100 100 100 100 100 100 99 100 100 100 95 98 100 100
5 5 7 99 100 92 41 99 92 100 100 100 77 74 52 48 56 98 100 93 98 94 82 96 68 99 100 100 100 100 100 100 100 100 100 99 97 100 100 100 99 100 100
5 5 91 100 100 60 44 90 99 100 100 80 59 66 65 98 100 100 100 90 12 13 66 25 100 100 100 100 100 100 100 100 100 100 100 100 100 100 100 100 100 100 100
7 97 100 100 92 70 42 90 100 100 99 54 98 49 45 100 100 100 100 39 5 8 5 94 100 100 100 100 100 100 100 100 100 100 100 100 100 100 100 100 100 100 100
97 100 100 87 95 89 52 100 100 100 55 67 69 49 97 98 100 87 8 46 37 10 16 73 90 99 100 100 100 100 100 100 100 100 100 100 100 100 100 100 100 100 100
100 100 92 74 96 99 96 100 100 80 69 46 27 59 63 63 52 7 54 58 47 8 15 58 62 47 94 99 100 100 100 100 100 100 100 100 100 100 100 100 100 100 100
100 98 90 72 100 94 100 99 87 96 83 38 79 100 96 29 33 61 64 76 42 6 5 5 5 42 54 88 100 100 100 100 100 100 100 100 100 100 100 100 100 100 100
100 100 89 95 99 100 94 94 100 83 42 74 100 86 7 73 95 99 100 70 87 38 5 5 5 15 66 100 100 100 100 100 100 100 100 100 100 100 100 100 100 100 100
100 100 99 100 100 99 96 100 88 38 66 100 82 6 80 100 100 100 100 100 72 74 72 71 66 84 98 100 99 93 87 100 100 100 100 100 100 100 100 100 100 100 100
90 100 99 98 100 99 100 99 5 55 99 39 5 6 84 100 92 74 96 81 100 100 100 95 94 90 91 84 93 98 80 83 94 100 100 100 100 100 100 100 100 100 100
100 99 100 99 90 96 100 6 85 91 12 5 24 86 99 89 90 83 89 100 100 100 100 100 100 99 86 100 96 82 72 5 26 74 100 100 100 100 100 100 100 100 100
91 94 100 82 90 98 19 96 43 5 5 27 95 100 100 90 100 100 100 100 100 100 100 100 100 100 84 79 90 74 5 5 5 59 100 100 100 100 100 100 100 100 100
100 100 84 84 100 46 100 19 5 12 39 92 90 98 96 97 100 100 100 100 100 100 100 100 100 100 100 87 76 70 6 5 5 84 100 100 100 100 100 100 100 100 100
98 92 99 99 30 94 11 10 62 78 64 71 95 100 100 100 100 100 100 100 100 100 100 100 100 100 100 74 40 5 5 5 16 100 100 100 100 100 100 100 100 100 100